| time (UTC) | temp F | wind direction | speed MPH | gust MPH | rain 1hr in | rain 24hr in | rain mn in | humidity % | barometer mb |
| 20260906005045 | 82 | 124 | 16.0 | 23.0 | 0.00 | 0.00 | 0.00 | 59 | 1014.1 |
| 20260906004600 | 82 | 114 | 14.0 | 23.0 | 0.00 | 0.00 | 0.00 | 58 | 1014.2 |
| 20260906004046 | 82 | 126 | 16.0 | 26.0 | 0.00 | 0.00 | 0.00 | 58 | 1014.2 |
| 20260906003546 | 83 | 113 | 17.0 | 26.0 | 0.00 | 0.00 | 0.00 | 58 | 1014.2 |
| 20260906003105 | 83 | 122 | 18.0 | 27.0 | 0.00 | 0.00 | 0.00 | 56 | 1014.2 |
| 20260906002552 | 84 | 124 | 19.0 | 27.0 | 0.00 | 0.00 | 0.00 | 56 | 1014.4 |
| 20260906002047 | 85 | 127 | 19.0 | 25.0 | 0.00 | 0.00 | 0.00 | 55 | 1014.3 |
| 20260906001611 | 85 | 98 | 17.0 | 22.0 | 0.00 | 0.00 | 0.00 | 54 | 1014.3 |
| 20260906001050 | 86 | 127 | 16.0 | 26.0 | 0.00 | 0.00 | 0.00 | 52 | 1014.2 |
| 20260906000547 | 86 | 96 | 17.0 | 28.0 | 0.00 | 0.00 | 0.00 | 51 | 1014.3 |
| 20260906000109 | 87 | 117 | 19.0 | 28.0 | 0.00 | 0.00 | 0.00 | 50 | 1014.3 |
| 20260905235548 | 87 | 116 | 18.0 | 24.0 | 0.00 | 0.00 | 0.00 | 51 | 1014.3 |
| 20260905235047 | 87 | 120 | 16.0 | 24.0 | 0.00 | 0.00 | 0.00 | 52 | 1014.1 |
| 20260905234607 | 87 | 96 | 16.0 | 24.0 | 0.00 | 0.00 | 0.00 | 51 | 1014.1 |
| 20260905234052 | 87 | 105 | 13.0 | 24.0 | 0.00 | 0.00 | 0.00 | 51 | 1014.2 |
| 20260905233547 | 88 | 84 | 12.0 | 24.0 | 0.00 | 0.00 | 0.00 | 51 | 1014.3 |
| 20260905233108 | 89 | 99 | 14.0 | 23.0 | 0.00 | 0.00 | 0.00 | 49 | 1014.2 |
| 20260905232548 | 91 | 113 | 14.0 | 22.0 | 0.00 | 0.00 | 0.00 | 45 | 1013.9 |
| 20260905232049 | 95 | 75 | 16.0 | 20.0 | 0.00 | 0.00 | 0.00 | 40 | 1014.0 |
| 20260905231619 | 96 | 148 | 11.0 | 16.0 | 0.00 | 0.00 | 0.00 | 35 | 1013.7 |
| 20260905231051 | 97 | 125 | 12.0 | 18.0 | 0.00 | 0.00 | 0.00 | 34 | 1013.6 |
| 20260905230549 | 97 | 101 | 12.0 | 18.0 | 0.00 | 0.00 | 0.00 | 34 | 1013.5 |
| 20260905230113 | 97 | 122 | 10.0 | 16.0 | 0.00 | 0.00 | 0.00 | 34 | 1013.4 |
| 20260905225546 | 98 | 115 | 7.0 | 22.0 | 0.00 | 0.00 | 0.00 | 34 | 1013.3 |
| 20260905225047 | 98 | 120 | 12.0 | 22.0 | 0.00 | 0.00 | 0.00 | 33 | 1013.2 |
| 20260905224604 | 97 | 146 | 13.0 | 22.0 | 0.00 | 0.00 | 0.00 | 34 | 1013.2 |
| 20260905224048 | 98 | 120 | 14.0 | 20.0 | 0.00 | 0.00 | 0.00 | 34 | 1013.2 |
| 20260905223546 | 97 | 128 | 12.0 | 18.0 | 0.00 | 0.00 | 0.00 | 34 | 1013.2 |
| 20260905223105 | 97 | 144 | 12.0 | 18.0 | 0.00 | 0.00 | 0.00 | 34 | 1013.2 |
| 20260905222550 | 98 | 129 | 10.0 | 18.0 | 0.00 | 0.00 | 0.00 | 33 | 1013.2 |
| 20260905222046 | 98 | 139 | 13.0 | 18.0 | 0.00 | 0.00 | 0.00 | 33 | 1013.1 |
| 20260905221633 | 98 | 141 | 12.0 | 20.0 | 0.00 | 0.00 | 0.00 | 34 | 1013.1 |
| 20260905221047 | 98 | 146 | 11.0 | 20.0 | 0.00 | 0.00 | 0.00 | 34 | 1013.1 |
| 20260905220549 | 98 | 151 | 12.0 | 18.0 | 0.00 | 0.00 | 0.00 | 33 | 1013.0 |
| 20260905220100 | 98 | 119 | 10.0 | 15.0 | 0.00 | 0.00 | 0.00 | 33 | 1013.2 |
| 20260905215547 | 98 | 143 | 9.0 | 16.0 | 0.00 | 0.00 | 0.00 | 34 | 1013.1 |
| 20260905215053 | 97 | 148 | 10.0 | 18.0 | 0.00 | 0.00 | 0.00 | 34 | 1013.2 |
| 20260905214609 | 97 | 161 | 12.0 | 19.0 | 0.00 | 0.00 | 0.00 | 35 | 1013.4 |
| 20260905214050 | 97 | 197 | 12.0 | 19.0 | 0.00 | 0.00 | 0.00 | 35 | 1013.4 |
| 20260905213549 | 97 | 195 | 14.0 | 19.0 | 0.00 | 0.00 | 0.00 | 35 | 1013.5 |
| 20260905213105 | 98 | 203 | 12.0 | 19.0 | 0.00 | 0.00 | 0.00 | 34 | 1013.6 |
| 20260905212552 | 98 | 152 | 12.0 | 19.0 | 0.00 | 0.00 | 0.00 | 34 | 1013.4 |
| 20260905212047 | 99 | 159 | 11.0 | 22.0 | 0.00 | 0.00 | 0.00 | 33 | 1013.4 |
| 20260905211605 | 99 | 206 | 12.0 | 22.0 | 0.00 | 0.00 | 0.00 | 33 | 1013.4 |
| 20260905211049 | 99 | 163 | 14.0 | 22.0 | 0.00 | 0.00 | 0.00 | 33 | 1013.4 |
| 20260905210548 | 99 | 157 | 13.0 | 22.0 | 0.00 | 0.00 | 0.00 | 32 | 1013.5 |
| 20260905210114 | 99 | 158 | 8.0 | 22.0 | 0.00 | 0.00 | 0.00 | 33 | 1013.5 |
| 20260905205548 | 98 | 200 | 13.0 | 20.0 | 0.00 | 0.00 | 0.00 | 34 | 1013.6 |
| 20260905205049 | 98 | 124 | 12.0 | 20.0 | 0.00 | 0.00 | 0.00 | 34 | 1013.7 |
| 20260905204601 | 98 | 135 | 8.0 | 20.0 | 0.00 | 0.00 | 0.00 | 35 | 1013.8 |
| 20260905204048 | 97 | 163 | 11.0 | 20.0 | 0.00 | 0.00 | 0.00 | 34 | 1014.0 |
| 20260905203548 | 98 | 124 | 7.0 | 17.0 | 0.00 | 0.00 | 0.00 | 34 | 1014.1 |
| 20260905203059 | 97 | 166 | 11.0 | 17.0 | 0.00 | 0.00 | 0.00 | 35 | 1014.3 |
| 20260905202549 | 97 | 176 | 13.0 | 22.0 | 0.00 | 0.00 | 0.00 | 35 | 1014.3 |
| 20260905202047 | 98 | 152 | 15.0 | 22.0 | 0.00 | 0.00 | 0.00 | 35 | 1014.3 |
| 20260905201600 | 98 | 141 | 14.0 | 20.0 | 0.00 | 0.00 | 0.00 | 35 | 1014.4 |
| 20260905201048 | 98 | 138 | 13.0 | 19.0 | 0.00 | 0.00 | 0.00 | 35 | 1014.5 |
| 20260905200548 | 97 | 169 | 9.0 | 16.0 | 0.00 | 0.00 | 0.00 | 35 | 1014.5 |
| 20260905200130 | 97 | 185 | 9.0 | 14.0 | 0.00 | 0.00 | 0.00 | 35 | 1014.6 |
| 20260905195552 | 96 | 170 | 9.0 | 15.0 | 0.00 | 0.00 | 0.00 | 35 | 1014.6 |
| 20260905195045 | 96 | 167 | 10.0 | 15.0 | 0.00 | 0.00 | 0.00 | 37 | 1014.6 |
| 20260905194600 | 96 | 145 | 10.0 | 14.0 | 0.00 | 0.00 | 0.00 | 37 | 1014.7 |
| 20260905194049 | 96 | 139 | 11.0 | 16.0 | 0.00 | 0.00 | 0.00 | 37 | 1014.7 |
| 20260905193548 | 96 | 158 | 11.0 | 16.0 | 0.00 | 0.00 | 0.00 | 37 | 1014.9 |
| 20260905193055 | 96 | 136 | 11.0 | 16.0 | 0.00 | 0.00 | 0.00 | 38 | 1014.9 |
| 20260905192549 | 96 | 151 | 11.0 | 15.0 | 0.00 | 0.00 | 0.00 | 38 | 1015.0 |
| 20260905192048 | 96 | 143 | 9.0 | 15.0 | 0.00 | 0.00 | 0.00 | 38 | 1014.9 |
| 20260905191602 | 96 | 153 | 9.0 | 13.0 | 0.00 | 0.00 | 0.00 | 38 | 1015.0 |
| 20260905191048 | 95 | 203 | 5.0 | 13.0 | 0.00 | 0.00 | 0.00 | 38 | 1014.9 |
| 20260905190546 | 95 | 161 | 9.0 | 14.0 | 0.00 | 0.00 | 0.00 | 38 | 1014.9 |
| 20260905185552 | 95 | 131 | 10.0 | 13.0 | 0.00 | 0.00 | 0.00 | 39 | 1015.2 |
| 20260905185045 | 95 | 161 | 7.0 | 15.0 | 0.00 | 0.00 | 0.00 | 39 | 1015.2 |
| 20260905184603 | 95 | 154 | 10.0 | 15.0 | 0.00 | 0.00 | 0.00 | 38 | 1015.2 |
| 20260905184054 | 96 | 141 | 11.0 | 17.0 | 0.00 | 0.00 | 0.00 | 38 | 1015.2 |
| 20260905183547 | 96 | 101 | 10.0 | 18.0 | 0.00 | 0.00 | 0.00 | 38 | 1015.2 |
| 20260905183057 | 97 | 132 | 10.0 | 23.0 | 0.00 | 0.00 | 0.00 | 37 | 1015.4 |
| 20260905182549 | 97 | 217 | 12.0 | 23.0 | 0.00 | 0.00 | 0.00 | 36 | 1015.4 |
| 20260905182053 | 97 | 202 | 12.0 | 19.0 | 0.00 | 0.00 | 0.00 | 37 | 1015.4 |
| 20260905181609 | 97 | 125 | 8.0 | 17.0 | 0.00 | 0.00 | 0.00 | 39 | 1015.4 |
| 20260905181048 | 96 | 149 | 13.0 | 17.0 | 0.00 | 0.00 | 0.00 | 40 | 1015.4 |
| 20260905180546 | 95 | 155 | 9.0 | 16.0 | 0.00 | 0.00 | 0.00 | 39 | 1015.4 |
| 20260905180116 | 95 | 132 | 10.0 | 16.0 | 0.00 | 0.00 | 0.00 | 40 | 1015.5 |
| 20260905175549 | 95 | 193 | 9.0 | 16.0 | 0.00 | 0.00 | 0.00 | 40 | 1015.7 |
| 20260905175052 | 94 | 202 | 10.0 | 16.0 | 0.00 | 0.00 | 0.00 | 42 | 1015.8 |
| 20260905174557 | 94 | 129 | 10.0 | 17.0 | 0.00 | 0.00 | 0.00 | 43 | 1015.8 |
| 20260905174050 | 94 | 125 | 10.0 | 17.0 | 0.00 | 0.00 | 0.00 | 43 | 1016.0 |
| 20260905173549 | 94 | 129 | 11.0 | 17.0 | 0.00 | 0.00 | 0.00 | 42 | 1016.0 |
| 20260905173129 | 94 | 158 | 11.0 | 18.0 | 0.00 | 0.00 | 0.00 | 43 | 1015.9 |
| 20260905172550 | 94 | 146 | 11.0 | 19.0 | 0.00 | 0.00 | 0.00 | 42 | 1015.9 |
| 20260905172049 | 95 | 162 | 9.0 | 19.0 | 0.00 | 0.00 | 0.00 | 42 | 1016.1 |
| 20260905171606 | 94 | 191 | 11.0 | 18.0 | 0.00 | 0.00 | 0.00 | 42 | 1015.9 |
| 20260905171048 | 93 | 160 | 13.0 | 20.0 | 0.00 | 0.00 | 0.00 | 44 | 1016.0 |
| 20260905170549 | 93 | 132 | 12.0 | 20.0 | 0.00 | 0.00 | 0.00 | 45 | 1016.0 |
| 20260905170105 | 93 | 166 | 12.0 | 20.0 | 0.00 | 0.00 | 0.00 | 46 | 1016.0 |
| 20260905165551 | 92 | 122 | 10.0 | 17.0 | 0.00 | 0.00 | 0.00 | 46 | 1016.0 |
| 20260905165050 | 92 | 191 | 12.0 | 17.0 | 0.00 | 0.00 | 0.00 | 47 | 1016.0 |
| 20260905164603 | 92 | 157 | 10.0 | 19.0 | 0.00 | 0.00 | 0.00 | 47 | 1016.0 |
| 20260905164049 | 92 | 200 | 9.0 | 19.0 | 0.00 | 0.00 | 0.00 | 46 | 1015.9 |
| 20260905163546 | 92 | 165 | 10.0 | 18.0 | 0.00 | 0.00 | 0.00 | 46 | 1016.0 |
| 20260905163105 | 92 | 153 | 11.0 | 18.0 | 0.00 | 0.00 | 0.00 | 47 | 1016.0 |
| 20260905162552 | 91 | 146 | 11.0 | 18.0 | 0.00 | 0.00 | 0.00 | 47 | 1016.0 |
| 20260905162048 | 91 | 136 | 13.0 | 18.0 | 0.00 | 0.00 | 0.00 | 47 | 1016.0 |
| 20260905161603 | 92 | 131 | 14.0 | 19.0 | 0.00 | 0.00 | 0.00 | 47 | 1015.8 |
| 20260905161049 | 92 | 147 | 12.0 | 19.0 | 0.00 | 0.00 | 0.00 | 46 | 1015.8 |
| 20260905160551 | 92 | 168 | 12.0 | 19.0 | 0.00 | 0.00 | 0.00 | 46 | 1015.8 |
| 20260905155549 | 91 | 138 | 10.0 | 18.0 | 0.00 | 0.00 | 0.00 | 48 | 1015.7 |
| 20260905155048 | 90 | 184 | 11.0 | 18.0 | 0.00 | 0.00 | 0.00 | 48 | 1015.6 |
| 20260905154606 | 89 | 188 | 12.0 | 17.0 | 0.00 | 0.00 | 0.00 | 49 | 1015.6 |
| 20260905154053 | 89 | 151 | 11.0 | 16.0 | 0.00 | 0.00 | 0.00 | 50 | 1015.7 |
| 20260905153550 | 89 | 162 | 11.0 | 18.0 | 0.00 | 0.00 | 0.00 | 51 | 1015.7 |
| 20260905153100 | 88 | 203 | 11.0 | 18.0 | 0.00 | 0.00 | 0.00 | 52 | 1015.8 |
| 20260905152549 | 88 | 184 | 13.0 | 17.0 | 0.00 | 0.00 | 0.00 | 52 | 1015.8 |
| 20260905152045 | 88 | 162 | 12.0 | 16.0 | 0.00 | 0.00 | 0.00 | 52 | 1015.8 |
| 20260905151602 | 88 | 202 | 12.0 | 17.0 | 0.00 | 0.00 | 0.00 | 52 | 1015.6 |
| 20260905151046 | 87 | 190 | 12.0 | 17.0 | 0.00 | 0.00 | 0.00 | 53 | 1015.7 |
| 20260905150552 | 87 | 171 | 12.0 | 17.0 | 0.00 | 0.00 | 0.00 | 53 | 1015.6 |
| 20260905150108 | 87 | 195 | 13.0 | 17.0 | 0.00 | 0.00 | 0.00 | 54 | 1015.6 |
| 20260905145549 | 86 | 136 | 12.0 | 17.0 | 0.00 | 0.00 | 0.00 | 55 | 1015.6 |
| 20260905145048 | 86 | 149 | 13.0 | 17.0 | 0.00 | 0.00 | 0.00 | 55 | 1015.5 |
| 20260905144605 | 85 | 136 | 12.0 | 17.0 | 0.00 | 0.00 | 0.00 | 56 | 1015.4 |
| 20260905144049 | 85 | 167 | 12.0 | 18.0 | 0.00 | 0.00 | 0.00 | 56 | 1015.3 |
| 20260905143548 | 85 | 155 | 12.0 | 18.0 | 0.00 | 0.00 | 0.00 | 57 | 1015.3 |
| 20260905143104 | 84 | 153 | 14.0 | 17.0 | 0.00 | 0.00 | 0.00 | 58 | 1015.3 |
| 20260905142550 | 84 | 150 | 13.0 | 17.0 | 0.00 | 0.00 | 0.00 | 59 | 1015.3 |
| 20260905142050 | 83 | 140 | 12.0 | 17.0 | 0.00 | 0.00 | 0.00 | 59 | 1015.3 |
| 20260905141603 | 83 | 156 | 12.0 | 17.0 | 0.00 | 0.00 | 0.00 | 61 | 1015.3 |
| 20260905141049 | 82 | 158 | 12.0 | 17.0 | 0.00 | 0.00 | 0.00 | 62 | 1015.3 |
| 20260905140550 | 81 | 150 | 10.0 | 15.0 | 0.00 | 0.00 | 0.00 | 64 | 1015.1 |
| 20260905140112 | 81 | 148 | 10.0 | 15.0 | 0.00 | 0.00 | 0.00 | 65 | 1015.1 |
| 20260905135550 | 80 | 137 | 9.0 | 14.0 | 0.00 | 0.00 | 0.00 | 66 | 1015.0 |
| 20260905135048 | 79 | 153 | 10.0 | 14.0 | 0.00 | 0.00 | 0.00 | 67 | 1015.0 |
| 20260905134609 | 78 | 163 | 9.0 | 12.0 | 0.00 | 0.00 | 0.00 | 68 | 1015.0 |
| 20260905134046 | 78 | 144 | 6.0 | 11.0 | 0.00 | 0.00 | 0.00 | 70 | 1015.0 |
| 20260905133546 | 77 | 143 | 7.0 | 15.0 | 0.00 | 0.00 | 0.00 | 71 | 1015.0 |
| 20260905133109 | 77 | 131 | 7.0 | 15.0 | 0.00 | 0.00 | 0.00 | 71 | 1015.0 |
| 20260905132548 | 77 | 142 | 9.0 | 14.0 | 0.00 | 0.00 | 0.00 | 71 | 1014.9 |
| 20260905132047 | 77 | 141 | 10.0 | 14.0 | 0.00 | 0.00 | 0.00 | 71 | 1014.9 |
| 20260905131608 | 76 | 152 | 9.0 | 13.0 | 0.00 | 0.00 | 0.00 | 72 | 1014.9 |
| 20260905131048 | 76 | 140 | 9.0 | 13.0 | 0.00 | 0.00 | 0.00 | 73 | 1014.7 |
| 20260905130549 | 75 | 165 | 9.0 | 12.0 | 0.00 | 0.00 | 0.00 | 74 | 1014.7 |
| 20260905130105 | 75 | 160 | 8.0 | 12.0 | 0.00 | 0.00 | 0.00 | 75 | 1014.6 |
| 20260905125548 | 74 | 141 | 8.0 | 13.0 | 0.00 | 0.00 | 0.00 | 76 | 1014.5 |
| 20260905125049 | 74 | 141 | 9.0 | 13.0 | 0.00 | 0.00 | 0.00 | 76 | 1014.4 |
| 20260905124604 | 74 | 148 | 8.0 | 12.0 | 0.00 | 0.00 | 0.00 | 76 | 1014.4 |
| 20260905124048 | 74 | 146 | 9.0 | 12.0 | 0.00 | 0.00 | 0.00 | 76 | 1014.3 |
| 20260905123551 | 73 | 143 | 7.0 | 10.0 | 0.00 | 0.00 | 0.00 | 76 | 1014.3 |
| 20260905123106 | 73 | 161 | 6.0 | 9.0 | 0.00 | 0.00 | 0.00 | 76 | 1014.3 |
| 20260905122549 | 73 | 153 | 5.0 | 9.0 | 0.00 | 0.00 | 0.00 | 75 | 1014.3 |
| 20260905122051 | 74 | 153 | 6.0 | 9.0 | 0.00 | 0.00 | 0.00 | 75 | 1014.3 |
| 20260905121605 | 74 | 148 | 7.0 | 9.0 | 0.00 | 0.00 | 0.00 | 74 | 1014.3 |
| 20260905121047 | 74 | 143 | 7.0 | 11.0 | 0.00 | 0.00 | 0.00 | 74 | 1014.3 |
| 20260905120550 | 74 | 163 | 7.0 | 11.0 | 0.00 | 0.00 | 0.00 | 73 | 1014.3 |
| 20260905120112 | 74 | 151 | 9.0 | 12.0 | 0.00 | 0.00 | 0.00 | 72 | 1014.3 |
| 20260905115546 | 74 | 154 | 8.0 | 12.0 | 0.00 | 0.00 | 0.00 | 72 | 1014.3 |
| 20260905115051 | 74 | 162 | 9.0 | 12.0 | 0.00 | 0.00 | 0.00 | 72 | 1014.3 |
| 20260905114609 | 74 | 142 | 9.0 | 12.0 | 0.00 | 0.00 | 0.00 | 71 | 1014.4 |
| 20260905114049 | 74 | 153 | 9.0 | 12.0 | 0.00 | 0.00 | 0.00 | 71 | 1014.4 |
| 20260905113612 | 74 | 155 | 8.0 | 12.0 | 0.00 | 0.00 | 0.00 | 70 | 1014.3 |
| 20260905113103 | 75 | 147 | 8.0 | 10.0 | 0.00 | 0.00 | 0.00 | 70 | 1014.2 |
| 20260905112549 | 75 | 151 | 8.0 | 10.0 | 0.00 | 0.00 | 0.00 | 69 | 1014.2 |
| 20260905112049 | 75 | 136 | 6.0 | 8.0 | 0.00 | 0.00 | 0.00 | 68 | 1014.1 |
| 20260905111655 | 75 | 151 | 6.0 | 9.0 | 0.00 | 0.00 | 0.00 | 66 | 1014.0 |
| 20260905111049 | 76 | 135 | 7.0 | 9.0 | 0.00 | 0.00 | 0.00 | 66 | 1014.0 |
| 20260905110548 | 76 | 140 | 6.0 | 9.0 | 0.00 | 0.00 | 0.00 | 65 | 1014.1 |
| 20260905105549 | 76 | 144 | 7.0 | 10.0 | 0.00 | 0.00 | 0.00 | 64 | 1014.2 |
| 20260905105048 | 76 | 133 | 8.0 | 10.0 | 0.00 | 0.00 | 0.00 | 64 | 1014.1 |
| 20260905104609 | 76 | 134 | 7.0 | 10.0 | 0.00 | 0.00 | 0.00 | 63 | 1014.2 |
| 20260905104046 | 76 | 140 | 6.0 | 13.0 | 0.00 | 0.00 | 0.00 | 63 | 1014.0 |
| 20260905103621 | 76 | 141 | 9.0 | 13.0 | 0.00 | 0.00 | 0.00 | 63 | 1014.0 |
| 20260905103549 | 76 | 141 | 9.0 | 13.0 | 0.00 | 0.00 | 0.00 | 63 | 1014.0 |
| 20260905103109 | 76 | 142 | 9.0 | 12.0 | 0.00 | 0.00 | 0.00 | 63 | 1013.9 |
| 20260905102549 | 76 | 137 | 7.0 | 11.0 | 0.00 | 0.00 | 0.00 | 62 | 1013.8 |
| 20260905102045 | 76 | 129 | 9.0 | 11.0 | 0.00 | 0.00 | 0.00 | 62 | 1013.9 |
| 20260905101607 | 76 | 122 | 3.0 | 11.0 | 0.00 | 0.00 | 0.00 | 63 | 1014.0 |
| 20260905101049 | 76 | 184 | 5.0 | 11.0 | 0.00 | 0.00 | 0.00 | 63 | 1014.2 |
| 20260905100549 | 76 | 117 | 9.0 | 11.0 | 0.00 | 0.00 | 0.00 | 63 | 1014.2 |
| 20260905095549 | 75 | 155 | 3.0 | 4.0 | 0.00 | 0.00 | 0.00 | 68 | 1014.0 |
| 20260905095223 | 75 | 139 | 4.0 | 6.0 | 0.00 | 0.00 | 0.00 | 69 | 1014.1 |
| 20260905095122 | 75 | 139 | 4.0 | 6.0 | 0.00 | 0.00 | 0.00 | 69 | 1014.1 |
| 20260905095049 | 75 | 139 | 4.0 | 6.0 | 0.00 | 0.00 | 0.00 | 69 | 1014.1 |
| 20260905094625 | 75 | 135 | 3.0 | 9.0 | 0.00 | 0.00 | 0.00 | 69 | 1014.2 |
| 20260905094554 | 75 | 135 | 3.0 | 9.0 | 0.00 | 0.00 | 0.00 | 69 | 1014.2 |
| 20260905094048 | 75 | 119 | 5.0 | 9.0 | 0.00 | 0.00 | 0.00 | 70 | 1014.2 |
| 20260905093549 | 75 | 100 | 7.0 | 9.0 | 0.00 | 0.00 | 0.00 | 70 | 1014.2 |
| 20260905093122 | 75 | 117 | 4.0 | 6.0 | 0.00 | 0.00 | 0.00 | 70 | 1014.4 |
| 20260905092545 | 75 | 100 | 4.0 | 5.0 | 0.00 | 0.00 | 0.00 | 70 | 1014.7 |
| 20260905092049 | 75 | 117 | 2.0 | 3.0 | 0.00 | 0.00 | 0.00 | 70 | 1014.7 |
| 20260905091604 | 75 | 105 | 1.0 | 4.0 | 0.00 | 0.00 | 0.00 | 69 | 1014.7 |
| 20260905091049 | 76 | 0 | 1.0 | 4.0 | 0.00 | 0.00 | 0.00 | 69 | 1014.8 |
| 20260905090549 | 76 | 121 | 3.0 | 4.0 | 0.00 | 0.00 | 0.00 | 69 | 1014.7 |
| 20260905090100 | 76 | 106 | 2.0 | 4.0 | 0.00 | 0.00 | 0.00 | 69 | 1014.5 |
| 20260905085549 | 76 | 136 | 2.0 | 6.0 | 0.00 | 0.00 | 0.00 | 69 | 1014.7 |
| 20260905085045 | 76 | 150 | 4.0 | 6.0 | 0.00 | 0.00 | 0.00 | 70 | 1014.9 |
| 20260905084603 | 76 | 140 | 0.0 | 1.0 | 0.00 | 0.00 | 0.00 | 70 | 1015.1 |
| 20260905084046 | 76 | 0 | 0.0 | 1.0 | 0.00 | 0.00 | 0.00 | 70 | 1015.0 |
| 20260905083550 | 76 | 0 | 0.0 | 2.0 | 0.00 | 0.00 | 0.00 | 69 | 1015.0 |
| 20260905083103 | 76 | 0 | 0.0 | 4.0 | 0.00 | 0.00 | 0.00 | 69 | 1014.9 |
| 20260905082548 | 76 | 0 | 0.0 | 8.0 | 0.00 | 0.00 | 0.00 | 70 | 1014.9 |
| 20260905082049 | 76 | 219 | 4.0 | 11.0 | 0.00 | 0.00 | 0.00 | 70 | 1014.7 |
| 20260905081601 | 76 | 174 | 6.0 | 14.0 | 0.00 | 0.00 | 0.00 | 71 | 1014.7 |
| 20260905081049 | 76 | 178 | 8.0 | 15.0 | 0.00 | 0.00 | 0.00 | 71 | 1014.7 |
| 20260905080546 | 76 | 189 | 9.0 | 17.0 | 0.00 | 0.00 | 0.00 | 71 | 1014.7 |
| 20260905080104 | 76 | 188 | 10.0 | 17.0 | 0.00 | 0.00 | 0.00 | 71 | 1014.7 |
| 20260905075549 | 76 | 181 | 11.0 | 17.0 | 0.00 | 0.00 | 0.00 | 70 | 1014.7 |
| 20260905075049 | 76 | 204 | 11.0 | 17.0 | 0.00 | 0.00 | 0.00 | 70 | 1014.7 |
| 20260905074609 | 77 | 203 | 10.0 | 16.0 | 0.00 | 0.00 | 0.00 | 70 | 1014.8 |
| 20260905074049 | 77 | 193 | 11.0 | 19.0 | 0.00 | 0.00 | 0.00 | 69 | 1015.0 |
| 20260905073551 | 77 | 217 | 12.0 | 19.0 | 0.00 | 0.00 | 0.00 | 69 | 1015.3 |
| 20260905073104 | 77 | 225 | 12.0 | 20.0 | 0.00 | 0.00 | 0.00 | 68 | 1015.3 |
| 20260905072549 | 77 | 217 | 13.0 | 20.0 | 0.00 | 0.00 | 0.00 | 67 | 1015.4 |
| 20260905072048 | 77 | 225 | 11.0 | 16.0 | 0.00 | 0.00 | 0.00 | 65 | 1015.5 |
| 20260905071555 | 78 | 231 | 11.0 | 18.0 | 0.00 | 0.00 | 0.00 | 63 | 1015.5 |
| 20260905071049 | 78 | 214 | 10.0 | 18.0 | 0.00 | 0.00 | 0.00 | 61 | 1015.8 |
| 20260905070548 | 79 | 230 | 12.0 | 18.0 | 0.00 | 0.00 | 0.00 | 59 | 1016.0 |
| 20260905070107 | 79 | 240 | 12.0 | 19.0 | 0.00 | 0.00 | 0.00 | 58 | 1016.2 |
| 20260905065548 | 80 | 236 | 12.0 | 19.0 | 0.00 | 0.00 | 0.00 | 56 | 1016.3 |
| 20260905065048 | 81 | 248 | 13.0 | 19.0 | 0.00 | 0.00 | 0.00 | 55 | 1016.2 |
| 20260905064631 | 81 | 248 | 13.0 | 19.0 | 0.00 | 0.00 | 0.00 | 55 | 1016.1 |
| 20260905064048 | 80 | 205 | 5.0 | 10.0 | 0.00 | 0.00 | 0.00 | 57 | 1016.1 |
| 20260905063549 | 81 | 196 | 5.0 | 11.0 | 0.00 | 0.00 | 0.00 | 58 | 1016.0 |
| 20260905063102 | 80 | 210 | 5.0 | 11.0 | 0.00 | 0.00 | 0.00 | 58 | 1016.0 |
| 20260905062548 | 80 | 225 | 4.0 | 9.0 | 0.00 | 0.00 | 0.00 | 62 | 1016.1 |
| 20260905062047 | 80 | 226 | 6.0 | 9.0 | 0.00 | 0.00 | 0.00 | 62 | 1016.3 |
| 20260905061604 | 80 | 247 | 2.0 | 5.0 | 0.00 | 0.00 | 0.00 | 63 | 1016.2 |
| 20260905061048 | 80 | 0 | 0.0 | 0.0 | 0.00 | 0.00 | 0.00 | 63 | 1016.1 |
| 20260905060545 | 81 | 0 | 0.0 | 11.0 | 0.00 | 0.00 | 0.00 | 62 | 1015.9 |
| 20260905060106 | 81 | 0 | 0.0 | 11.0 | 0.00 | 0.00 | 0.00 | 62 | 1015.5 |
| 20260905055545 | 81 | 68 | 7.0 | 12.0 | 0.00 | 0.00 | 0.00 | 61 | 1015.2 |
| 20260905055049 | 80 | 137 | 4.0 | 12.0 | 0.00 | 0.00 | 0.00 | 62 | 1015.1 |
| 20260905054603 | 79 | 116 | 8.0 | 21.0 | 0.00 | 0.00 | 0.00 | 65 | 1014.8 |
| 20260905054053 | 78 | 347 | 10.0 | 21.0 | 0.00 | 0.00 | 0.00 | 69 | 1014.6 |
| 20260905053549 | 75 | 143 | 3.0 | 9.0 | 0.00 | 0.00 | 0.00 | 75 | 1014.6 |
| 20260905053105 | 74 | 138 | 3.0 | 7.0 | 0.00 | 0.00 | 0.00 | 76 | 1014.8 |
| 20260905052548 | 74 | 35 | 2.0 | 7.0 | 0.00 | 0.00 | 0.00 | 76 | 1014.5 |
| 20260905052049 | 75 | 13 | 3.0 | 11.0 | 0.00 | 0.00 | 0.00 | 75 | 1014.5 |
| 20260905051604 | 75 | 78 | 2.0 | 16.0 | 0.00 | 0.00 | 0.00 | 76 | 1014.4 |
| 20260905051048 | 75 | 246 | 9.0 | 16.0 | 0.00 | 0.00 | 0.00 | 76 | 1013.9 |
| 20260905050546 | 75 | 255 | 12.0 | 16.0 | 0.00 | 0.00 | 0.00 | 75 | 1013.7 |
| 20260905045546 | 76 | 252 | 12.0 | 19.0 | 0.00 | 0.00 | 0.00 | 73 | 1013.5 |
| 20260905045045 | 76 | 219 | 11.0 | 23.0 | 0.00 | 0.00 | 0.00 | 73 | 1013.4 |
| 20260905044606 | 76 | 228 | 14.0 | 25.0 | 0.00 | 0.00 | 0.00 | 72 | 1013.2 |
| 20260905044050 | 76 | 224 | 16.0 | 27.0 | 0.00 | 0.00 | 0.00 | 71 | 1013.4 |
| 20260905043549 | 76 | 214 | 19.0 | 27.0 | 0.00 | 0.00 | 0.00 | 70 | 1013.3 |
| 20260905043105 | 76 | 226 | 18.0 | 26.0 | 0.00 | 0.00 | 0.00 | 70 | 1013.2 |
| 20260905042548 | 76 | 191 | 18.0 | 26.0 | 0.00 | 0.00 | 0.00 | 71 | 1013.2 |
| 20260905042049 | 77 | 201 | 19.0 | 28.0 | 0.00 | 0.00 | 0.00 | 70 | 1013.1 |
| 20260905041607 | 78 | 194 | 20.0 | 28.0 | 0.00 | 0.00 | 0.00 | 68 | 1013.2 |
| 20260905041048 | 78 | 194 | 19.0 | 26.0 | 0.00 | 0.00 | 0.00 | 69 | 1013.1 |
| 20260905040545 | 78 | 189 | 16.0 | 23.0 | 0.00 | 0.00 | 0.00 | 68 | 1013.6 |
| 20260905040105 | 78 | 186 | 16.0 | 20.0 | 0.00 | 0.00 | 0.00 | 68 | 1014.3 |
| 20260905035548 | 78 | 174 | 14.0 | 19.0 | 0.00 | 0.00 | 0.00 | 67 | 1014.5 |
| 20260905035051 | 78 | 183 | 12.0 | 17.0 | 0.00 | 0.00 | 0.00 | 68 | 1014.9 |
| 20260905034608 | 78 | 194 | 12.0 | 18.0 | 0.00 | 0.00 | 0.00 | 67 | 1015.3 |
| 20260905034052 | 78 | 184 | 12.0 | 18.0 | 0.00 | 0.00 | 0.00 | 67 | 1015.6 |
| 20260905033548 | 78 | 212 | 12.0 | 17.0 | 0.00 | 0.00 | 0.00 | 67 | 1015.6 |
| 20260905033114 | 79 | 211 | 11.0 | 16.0 | 0.00 | 0.00 | 0.00 | 66 | 1015.6 |
| 20260905032549 | 79 | 209 | 11.0 | 15.0 | 0.00 | 0.00 | 0.00 | 64 | 1015.6 |
| 20260905032047 | 80 | 200 | 8.0 | 14.0 | 0.00 | 0.00 | 0.00 | 62 | 1015.4 |
| 20260905031617 | 80 | 238 | 8.0 | 14.0 | 0.00 | 0.00 | 0.00 | 60 | 1015.7 |
| 20260905031048 | 81 | 241 | 8.0 | 14.0 | 0.00 | 0.00 | 0.00 | 58 | 1015.8 |
| 20260905030549 | 82 | 235 | 9.0 | 17.0 | 0.00 | 0.00 | 0.00 | 57 | 1015.8 |
| 20260905030119 | 82 | 226 | 10.0 | 17.0 | 0.00 | 0.00 | 0.00 | 55 | 1015.7 |
| 20260905025549 | 83 | 248 | 10.0 | 15.0 | 0.00 | 0.00 | 0.00 | 55 | 1015.4 |
| 20260905025051 | 83 | 234 | 11.0 | 16.0 | 0.00 | 0.00 | 0.00 | 53 | 1015.3 |
| 20260905024607 | 84 | 217 | 11.0 | 16.0 | 0.00 | 0.00 | 0.00 | 52 | 1015.4 |
| 20260905024045 | 84 | 224 | 10.0 | 14.0 | 0.00 | 0.00 | 0.00 | 51 | 1015.4 |
| 20260905023551 | 84 | 222 | 10.0 | 13.0 | 0.00 | 0.00 | 0.00 | 51 | 1015.4 |
| 20260905023105 | 84 | 223 | 7.0 | 13.0 | 0.00 | 0.00 | 0.00 | 51 | 1015.3 |
| 20260905022548 | 84 | 224 | 8.0 | 13.0 | 0.00 | 0.00 | 0.00 | 51 | 1015.2 |
| 20260905022049 | 84 | 222 | 7.0 | 11.0 | 0.00 | 0.00 | 0.00 | 51 | 1015.2 |
| 20260905021611 | 84 | 223 | 5.0 | 9.0 | 0.00 | 0.00 | 0.00 | 51 | 1015.0 |
| 20260905021049 | 85 | 224 | 4.0 | 9.0 | 0.00 | 0.00 | 0.00 | 50 | 1014.9 |
| 20260905020549 | 85 | 245 | 5.0 | 11.0 | 0.00 | 0.00 | 0.00 | 49 | 1014.8 |
| 20260905020104 | 86 | 261 | 7.0 | 12.0 | 0.00 | 0.00 | 0.00 | 48 | 1014.7 |
| 20260905015546 | 86 | 237 | 6.0 | 14.0 | 0.00 | 0.00 | 0.00 | 47 | 1014.6 |
| 20260905015052 | 88 | 267 | 9.0 | 22.0 | 0.00 | 0.00 | 0.00 | 45 | 1014.4 |
| 20260905014559 | 89 | 227 | 10.0 | 24.0 | 0.00 | 0.00 | 0.00 | 44 | 1014.2 |
| 20260905014046 | 88 | 229 | 15.0 | 24.0 | 0.00 | 0.00 | 0.00 | 45 | 1013.8 |
| 20260905013551 | 88 | 271 | 13.0 | 24.0 | 0.00 | 0.00 | 0.00 | 46 | 1013.6 |
| 20260905013101 | 90 | 203 | 5.0 | 9.0 | 0.00 | 0.00 | 0.00 | 41 | 1013.8 |
| 20260905012552 | 90 | 135 | 6.0 | 9.0 | 0.00 | 0.00 | 0.00 | 41 | 1013.2 |
| 20260905012049 | 91 | 129 | 6.0 | 11.0 | 0.00 | 0.00 | 0.00 | 40 | 1013.1 |
| 20260905011557 | 91 | 130 | 7.0 | 11.0 | 0.00 | 0.00 | 0.00 | 40 | 1013.1 |
| 20260905011046 | 91 | 133 | 7.0 | 10.0 | 0.00 | 0.00 | 0.00 | 39 | 1013.0 |
| 20260905010550 | 92 | 132 | 7.0 | 11.0 | 0.00 | 0.00 | 0.00 | 39 | 1013.0 |
| 20260905010106 | 92 | 134 | 8.0 | 11.0 | 0.00 | 0.00 | 0.00 | 39 | 1013.1 |
| 20260905005550 | 92 | 120 | 7.0 | 10.0 | 0.00 | 0.00 | 0.00 | 39 | 1013.0 |